Location: Gro�sch�nbrunn
(49.5760°N, 11.8868°E)
Time: 12:33:33
(UTC+00:00)

MOS 1 Rocket - Pass Details

Date: 18 September 2020
Orbit: 614 x 831 km, 97.4° (Epoch: 23 October)

Event Time Altitude Azimuth Distance (km) Brightness Sun altitude
Rises 18:56:22 0° 9° (N) 3,048 6.8 -16.3°
Reaches altitude 10° 18:58:42 10° 5° (N) 2,097 6.0 -16.6°
Maximum altitude 19:03:07 53° 289° (WNW) 788 3.9 -17.3°
Drops below altitude 10° 19:07:20 10° 212° (SSW) 1,995 5.7 -17.9°
Sets 19:09:30 0° 208° (SSW) 2,883 6.5 -18.2°
